| time (UTC) | temp C | wind direction | speed KPH | gust KPH | rain 1hr cm | rain 24hr cm | rain mn cm | humidity % | barometer mb |
| 20260503052711 | 6 | 339 | 17.7 | 22.5 | 0.00 | 0.00 | 0.00 | 90 | 1008.2 |
| 20260503050711 | 5 | 341 | 20.9 | 29.0 | 0.00 | 0.00 | 0.00 | 90 | 1007.7 |
| 20260503044711 | 5 | 344 | 20.9 | 25.7 | 0.00 | 0.00 | 0.00 | 89 | 1007.5 |
| 20260503042711 | 6 | 344 | 19.3 | 25.7 | 0.00 | 0.00 | 0.00 | 85 | 1007.3 |
| 20260503040711 | 6 | 335 | 22.5 | 27.4 | 0.00 | 0.00 | 0.00 | 86 | 1007.2 |
| 20260503034711 | 6 | 324 | 24.1 | 35.4 | 0.00 | 0.00 | 0.00 | 85 | 1007.4 |
| 20260503032711 | 6 | 327 | 25.7 | 33.8 | 0.00 | 0.00 | 0.00 | 85 | 1007.2 |
| 20260503030712 | 6 | 324 | 20.9 | 29.0 | 0.00 | 0.00 | 0.00 | 84 | 1006.9 |
| 20260503024712 | 7 | 327 | 25.7 | 37.0 | 0.00 | 0.00 | 0.00 | 78 | 1006.7 |
| 20260503022711 | 6 | 320 | 19.3 | 32.2 | 0.00 | 0.00 | 0.00 | 85 | 1006.9 |
| 20260503020711 | 7 | 337 | 22.5 | 29.0 | 0.00 | 0.00 | 0.00 | 83 | 1006.5 |
| 20260503014711 | 6 | 325 | 17.7 | 24.1 | 0.00 | 0.00 | 0.00 | 85 | 1006.5 |
| 20260503012711 | 7 | 315 | 16.1 | 20.9 | 0.00 | 0.00 | 0.00 | 84 | 1006.3 |
| 20260503010712 | 7 | 299 | 16.1 | 20.9 | 0.00 | 0.00 | 0.00 | 82 | 1006.3 |
| 20260503004712 | 7 | 288 | 17.7 | 22.5 | 0.00 | 0.00 | 0.00 | 83 | 1006.2 |
| 20260503002712 | 6 | 273 | 20.9 | 24.1 | 0.00 | 0.00 | 0.00 | 85 | 1006.3 |
| 20260503000711 | 6 | 271 | 24.1 | 27.4 | 0.00 | 0.00 | 0.00 | 85 | 1006.1 |
| 20260502234711 | 7 | 269 | 22.5 | 27.4 | 0.00 | 0.00 | 0.00 | 84 | 1006.0 |
| 20260502232711 | 7 | 265 | 24.1 | 29.0 | 0.00 | 0.00 | 0.00 | 84 | 1005.9 |
| 20260502230710 | 7 | 254 | 29.0 | 33.8 | 0.00 | 0.00 | 0.00 | 84 | 1006.2 |
| 20260502224711 | 7 | 244 | 29.0 | 32.2 | 0.00 | 0.00 | 0.00 | 83 | 1006.2 |
| 20260502222711 | 7 | 239 | 30.6 | 33.8 | 0.00 | 0.00 | 0.00 | 85 | 1006.3 |
| 20260502220712 | 6 | 233 | 32.2 | 37.0 | 0.00 | 0.00 | 0.00 | 86 | 1006.5 |
| 20260502214710 | 6 | 229 | 32.2 | 37.0 | 0.00 | 0.00 | 0.00 | 86 | 1006.6 |
| 20260502212710 | 6 | 233 | 29.0 | 33.8 | 0.00 | 0.00 | 0.00 | 86 | 1006.9 |
| 20260502210710 | 6 | 225 | 30.6 | 35.4 | 0.00 | 0.00 | 0.00 | 86 | 1006.9 |
| 20260502204711 | 6 | 224 | 30.6 | 33.8 | 0.00 | 0.00 | 0.00 | 85 | 1007.0 |
| 20260502202710 | 6 | 221 | 30.6 | 35.4 | 0.00 | 0.00 | 0.00 | 85 | 1007.1 |
| 20260502200711 | 7 | 221 | 29.0 | 35.4 | 0.00 | 0.00 | 0.00 | 84 | 1007.3 |
| 20260502194710 | 7 | 218 | 29.0 | 33.8 | 0.00 | 0.00 | 0.00 | 83 | 1007.4 |
| 20260502192710 | 7 | 217 | 30.6 | 35.4 | 0.00 | 0.00 | 0.00 | 82 | 1007.6 |
| 20260502190709 | 7 | 217 | 32.2 | 37.0 | 0.00 | 0.00 | 0.00 | 81 | 1007.7 |
| 20260502184709 | 7 | 214 | 33.8 | 40.2 | 0.00 | 0.00 | 0.00 | 79 | 1007.7 |
| 20260502182710 | 7 | 209 | 30.6 | 37.0 | 0.00 | 0.00 | 0.00 | 79 | 1007.9 |
| 20260502180709 | 7 | 212 | 32.2 | 37.0 | 0.00 | 0.00 | 0.00 | 77 | 1008.0 |
| 20260502162709 | 8 | 218 | 32.2 | 37.0 | 0.00 | 0.00 | 0.00 | 72 | 1009.1 |
| 20260502160709 | 9 | 219 | 33.8 | 38.6 | 0.00 | 0.00 | 0.00 | 71 | 1009.3 |
| 20260502150709 | 10 | 221 | 37.0 | 45.1 | 0.00 | 0.00 | 0.00 | 67 | 1010.1 |
| 20260502130709 | 10 | 229 | 37.0 | 43.5 | 0.00 | 0.00 | 0.00 | 67 | 1011.0 |
| 20260502122708 | 10 | 222 | 38.6 | 45.1 | 0.00 | 0.00 | 0.00 | 67 | 1011.2 |
| 20260502120708 | 10 | 226 | 40.2 | 45.1 | 0.00 | 0.00 | 0.00 | 66 | 1011.3 |
| 20260502114709 | 10 | 227 | 38.6 | 45.1 | 0.00 | 0.00 | 0.00 | 66 | 1011.5 |
| 20260502112708 | 10 | 228 | 40.2 | 45.1 | 0.00 | 0.00 | 0.00 | 67 | 1011.6 |
| 20260502110708 | 10 | 232 | 33.8 | 45.1 | 0.00 | 0.00 | 0.00 | 67 | 1011.9 |
| 20260502104708 | 10 | 230 | 33.8 | 38.6 | 0.00 | 0.00 | 0.00 | 67 | 1012.0 |
| 20260502102708 | 10 | 229 | 30.6 | 33.8 | 0.00 | 0.00 | 0.00 | 67 | 1012.1 |
| 20260502100708 | 9 | 232 | 38.6 | 45.1 | 0.00 | 0.00 | 0.00 | 69 | 1012.2 |
| 20260502090708 | 9 | 245 | 30.6 | 37.0 | 0.00 | 0.00 | 0.00 | 67 | 1012.3 |
| 20260502070707 | 8 | 254 | 29.0 | 33.8 | 0.00 | 0.00 | 0.00 | 73 | 1012.7 |
| 20260502064707 | 8 | 253 | 27.4 | 32.2 | 0.00 | 0.00 | 0.00 | 74 | 1012.9 |
| 20260502062707 | 8 | 250 | 33.8 | 40.2 | 0.00 | 0.00 | 0.00 | 75 | 1012.9 |
| 20260502060707 | 7 | 250 | 33.8 | 38.6 | 0.00 | 0.00 | 0.00 | 75 | 1012.9 |
| 20260502054707 | 7 | 250 | 33.8 | 37.0 | 0.00 | 0.00 | 0.00 | 76 | 1012.9 |